Location: Hemaruka
(51.7801°N, 111.0917°W)
Time: 10:13:23
(UTC+00:00)

NOAA 15 - Pass Details

Date: 15 December 2023
Orbit: 797 x 810 km, 98.6° (Epoch: 02 March)

Event Time Altitude Azimuth Distance (km) Brightness Sun altitude
Rises 13:51:34 0° 27° (NNE) 3,318 7.9 -13.4°
Reaches altitude 10° 13:54:45 10° 47° (NE) 2,381 7.4 -12.9°
Maximum altitude 13:58:09 17° 87° (E) 1,918 7.5 -12.4°
Drops below altitude 10° 14:01:32 10° 128° (SE) 2,368 8.4 -11.9°
Sets 14:04:40 0° 148° (SSE) 3,292 8.8 -11.5°
